Weather History for Shreveport, LA

Change the Weather History Date:

Friday, May 24, 2013

  Actual Average Record
Temperature  
Mean Temperature 78 °F 75 °F  
Max Temperature 86 °F 86 °F 101 °F (1875)
Min Temperature 69 °F 65 °F 54 °F (1940)
Degree Days  
Heating Degree Days 0 0  
Month to date heating degree days 38 5  
Since 1 July heating degree days 2081 2224  
Cooling Degree Days 13 10  
Month to date cooling degree days 166 184  
Year to date cooling degree days 285 319  
Growing Degree Days 28 (Base 50)    
Moisture  
Dew Point 68 °F    
Average Humidity 79    
Maximum Humidity 97    
Minimum Humidity 61    
Precipitation  
Precipitation 0.00 in 0.15 in 3.21 in (1872)
Month to date precipitation 2.53 3.82  
Year to date precipitation 16.73 21.10  
Snow  
Snow 0.00 in - - ()
Month to date snowfall 0.0  
Since 1 July snowfall 0.1  
Snow Depth 0.00 in    
Sea Level Pressure  
Sea Level Pressure 30.12 in    
Wind  
Wind Speed 8 mph (East)    
Max Wind Speed 16 mph    
Max Gust Speed 22 mph    
Visibility 9 miles    
Events      
T = Trace of Precipitation, MM = Missing Value Source: NWS Daily Summary

Daily Weather History Graph

Daily Weather History Graph

Search for Another Location

Airport:

Trip Planner

Search our weather history database for the weather conditions in past years. The results will help you decide how hot, cold, wet, or windy it might be!

Date:

Astronomy

May. 24, 2013 Rise Set
Actual Time 6:11 AM CDT 8:12 PM CDT
Civil Twilight 5:44 AM CDT 8:40 PM CDT
Nautical Twilight 5:10 AM CDT 9:14 PM CDT
Astronomical Twilight 4:34 AM CDT 9:50 PM CDT
Moon 7:57 PM CDT (5/24) 5:41 AM CDT (5/24)
Length of Visible Light 14h 56m
Length of Day
14h 01m
Full, 100% of the Moon is Illuminated
May 24
Full
May 24
Full
May 31
Last Quarter
Jun 8
New
Jun 16
First Quarter

Hourly Weather History & Observations

Time (CDT) Temp. Heat Index Dew Point Humidity Pressure Visibility Wind Dir Wind Speed Gust Speed Precip Events Conditions
12:56 AM 71.1 °F - 68.0 °F 90% 30.04 in 8.0 mi SSE 3.5 mph - N/A   Overcast
1:56 AM 73.0 °F - 70.0 °F 90% 30.04 in 7.0 mi NE 4.6 mph - N/A   Overcast
2:56 AM 72.0 °F - 69.1 °F 91% 30.03 in 7.0 mi Calm Calm - N/A   Overcast
3:56 AM 71.1 °F - 68.0 °F 90% 30.04 in 6.0 mi Calm Calm - N/A   Overcast
4:56 AM 71.1 °F - 69.1 °F 93% 30.06 in 6.0 mi Calm Calm - N/A   Overcast
5:56 AM 70.0 °F - 68.0 °F 93% 30.07 in 5.0 mi Calm Calm - N/A   Overcast
6:56 AM 73.0 °F - 71.1 °F 93% 30.09 in 4.0 mi Calm Calm - N/A   Overcast
7:56 AM 73.9 °F - 70.0 °F 87% 30.12 in 6.0 mi ENE 6.9 mph - N/A   Overcast
8:56 AM 75.0 °F - 68.0 °F 79% 30.16 in 7.0 mi East 13.8 mph - N/A   Mostly Cloudy
9:56 AM 78.1 °F - 68.0 °F 71% 30.17 in 10.0 mi East 10.4 mph 18.4 mph N/A   Mostly Cloudy
10:56 AM 81.0 °F 84.1 °F 69.1 °F 67% 30.17 in 10.0 mi East 9.2 mph - N/A   Scattered Clouds
11:56 AM 82.9 °F 86.5 °F 69.1 °F 63% 30.18 in 10.0 mi NE 9.2 mph - N/A   Scattered Clouds
12:56 PM 82.9 °F 87.0 °F 70.0 °F 65% 30.17 in 10.0 mi East 8.1 mph - N/A   Overcast
1:10 PM 82.4 °F 86.3 °F 69.8 °F 66% 30.18 in 10.0 mi East 8.1 mph - N/A   Overcast
1:56 PM 82.9 °F 87.0 °F 70.0 °F 65% 30.16 in 10.0 mi ESE 9.2 mph - N/A   Overcast
2:56 PM 84.0 °F 88.4 °F 70.0 °F 63% 30.14 in 10.0 mi East 11.5 mph - N/A   Mostly Cloudy
3:56 PM 84.9 °F 89.4 °F 70.0 °F 61% 30.12 in 10.0 mi ENE 10.4 mph 17.3 mph N/A   Scattered Clouds
4:56 PM 84.9 °F 89.4 °F 70.0 °F 61% 30.09 in 10.0 mi East 9.2 mph - N/A   Mostly Cloudy
5:56 PM 82.0 °F 84.9 °F 68.0 °F 62% 30.09 in 10.0 mi East 11.5 mph - N/A   Mostly Cloudy
6:56 PM 80.1 °F 82.1 °F 66.0 °F 62% 30.11 in 10.0 mi East 12.7 mph - N/A   Overcast
7:56 PM 78.1 °F - 66.9 °F 68% 30.12 in 10.0 mi East 8.1 mph - N/A   Overcast
8:56 PM 77.0 °F - 66.0 °F 69% 30.12 in 10.0 mi East 8.1 mph - N/A   Overcast
9:56 PM 75.9 °F - 66.0 °F 71% 30.14 in 10.0 mi East 9.2 mph - N/A   Overcast
10:56 PM 73.9 °F - 64.9 °F 73% 30.16 in 10.0 mi East 8.1 mph - N/A   Overcast
11:56 PM 73.9 °F - 63.0 °F 68% 30.15 in 10.0 mi ESE 9.2 mph - N/A   Overcast